This is the latest recevied weather packets stored in our database for station/object DG6YGE-6. If no packets are shown the sender has not sent any weather packets the latest 10 day(s).
| Time | Temp. | Humidity | Pressure | Rain* | Wind** | Luminosity | Snow |
|---|---|---|---|---|---|---|---|
| 1777443552 | 6.67° C | 68% | 1026.3 hPa | 0 mm | - | 260 W/m² | - |
| 1777442952 | 6.67° C | 68% | 1026.3 hPa | 0 mm | - | 237 W/m² | - |
| 1777442352 | 6.11° C | 69% | 1026.2 hPa | 0 mm | - | 193 W/m² | - |
| 1777441753 | 6.11° C | 69% | 1026.1 hPa | 0 mm | - | 181 W/m² | - |
| 1777441152 | 6.11° C | 70% | 1025.9 hPa | 0 mm | - | 151 W/m² | - |
| 1777440552 | 5.56° C | 70% | 1025.9 hPa | 0 mm | - | 122 W/m² | - |
| 1777439952 | 5.56° C | 70% | 1025.8 hPa | 0 mm | - | 97 W/m² | - |
| 1777439352 | 5° C | 70% | 1025.7 hPa | 0 mm | - | 73 W/m² | - |
| 1777438754 | 5° C | 70% | 1025.4 hPa | 0 mm | - | 52 W/m² | - |
| 1777438153 | 5° C | 70% | 1025.3 hPa | 0 mm | - | 36 W/m² | - |
| 1777437553 | 5° C | 70% | 1025.2 hPa | 0 mm | - | 21 W/m² | - |
| 1777436952 | 5° C | 70% | 1025.3 hPa | 0 mm | - | 12 W/m² | - |
| 1777436352 | 5.56° C | 70% | 1025.2 hPa | 0 mm | - | 10 W/m² | - |
| 1777435752 | 5.56° C | 69% | 1025.2 hPa | 0 mm | - | 5 W/m² | - |
| 1777435152 | 5.56° C | 69% | 1025.1 hPa | 0 mm | - | 0 W/m² | - |
| 1777434552 | 5.56° C | 69% | 1025 hPa | 0 mm | - | 0 W/m² | - |
| 1777433953 | 5.56° C | 68% | 1025.1 hPa | 0 mm | - | 0 W/m² | - |
| 1777433353 | 5.56° C | 68% | 1025 hPa | 0 mm | - | 0 W/m² | - |
| 1777432752 | 5.56° C | 68% | 1025 hPa | 0 mm | - | 0 W/m² | - |
| 1777432152 | 6.11° C | 67% | 1025.1 hPa | 0 mm | - | 0 W/m² | - |
| 1777431553 | 6.11° C | 67% | 1025.2 hPa | 0 mm | - | 0 W/m² | - |
| 1777430953 | 6.11° C | 67% | 1025.1 hPa | 0 mm | - | 0 W/m² | - |
| 1777430352 | 6.11° C | 66% | 1025.1 hPa | 0 mm | - | 0 W/m² | - |
| 1777429752 | 6.67° C | 65% | 1025.1 hPa | 0 mm | - | 0 W/m² | - |
| 1777429152 | 6.67° C | 65% | 1025.2 hPa | 0 mm | - | 0 W/m² | - |
* Rain latest hour (hover to see other rain measurements)
** Current wind speed in m/s (hover to see current wind gust speed)